Regional Weather Roundup
Issued by NWS Cleveland, OH

Home | Current Version | Previous Version | Graphics & Text | Print | Product List | Glossary On
Versions: 1 2 3 4 5 6 7 8 9 10 11 12 13 14 15 16 17 18 19 20 21 22 23 24 25 26 27 28 29 30 31 32 33 34 35 36 37 38 39 40 41 42 43 44 45 46 47 48 49 50
000
ASUS41 KCLE 310310
RWRCLE
OHIO REGIONAL WEATHER ROUNDUP
NATIONAL WEATHER SERVICE WILMINGTON, OH
1100 PM EDT THU JUL 30 2015

NOTE: "FAIR" INDICATES FEW OR NO CLOUDS BELOW 12,000 FEET WITH NO
SIGNIFICANT WEATHER AND/OR OBSTRUCTIONS TO VISIBILITY.

OHZ001>008-015>018-024>027-034-035-043-044-310400-
   NORTHWEST OHIO

CITY           SKY/WX    TMP DP  RH WIND       PRES   REMARKS
DEFIANCE       CLEAR     67  58  72 SW3       30.01R
FINDLAY        CLEAR     67  60  78 SW3       30.01R
TOLEDO EXPRESS CLEAR     71  58  63 SW6       29.99R
TOLEDO EXEC    CLEAR     73  58  59 SW7       30.00R
LIMA           CLEAR     66  57  72 SW3       30.04R
$$

OHZ009>014-019>023-028>033-038-089-310400-
   NORTHEAST OHIO

CITY           SKY/WX    TMP DP  RH WIND       PRES   REMARKS
CLE-HOPKINS    CLEAR     70  58  65 W6        30.00R
CLE-LAKEFRONT  CLEAR     78  66  66 W18       29.95R
CUY CO. ARPT   CLEAR     77  66  69 W13       29.98R
LORAIN-ELYRIA  CLEAR     67  58  72 W6        29.99R
ASHTABULA      PTCLDY    69  59  70 SW5       29.96S
AKRON-CANTON   CLEAR     72  57  59 W5        30.00R
WOOSTER        CLEAR     63  60  90 W5        30.01S
MANSFIELD      CLEAR     70  57  63 W6        30.03R
YOUNGSTOWN     PTCLDY    68  59  73 SW5       29.98S
$$

OHZ042-051>053-060>062-070>072-077>081-310400-
  SOUTHWEST OHIO

CITY           SKY/WX    TMP DP  RH WIND       PRES   REMARKS
CINC-COVINGTON CLEAR     72  60  66 CALM      30.07R
CINC-LUNKEN    CLEAR     68  63  84 CALM      30.06R
HAMILTON       CLEAR     66  63  90 CALM      30.06R
DAYTON         CLEAR     71  59  65 NW6       30.06R
WRIGHT-PAT AFB CLEAR     67  62  83 S1        30.05R
DAYTON GENERAL CLEAR     72  59  63 CALM      30.06R
WILMINGTON     CLEAR     66  61  84 SW3       30.06R
$$

OHZ036-037-039>041-045>050-054>059-063>069-073>076-082>088-310400-
  CENTRAL AND SOUTHEAST OHIO

CITY           SKY/WX    TMP DP  RH WIND       PRES   REMARKS
COLUMBUS       CLEAR     72  59  63 W7        30.02R
OSU AIRPORT    CLEAR     69  60  73 W7        30.03R
BOLTON FIELD   CLEAR     70  60  71 W5        30.04S
RICKENBACK AFB CLEAR     70  59  66 W5        30.03R
NEWARK         CLEAR     67  60  78 CALM      30.02R
MARION         CLEAR     71  56  58 W6        30.03R
LANCASTER      CLEAR     64  60  87 CALM      30.04R
ZANESVILLE     CLEAR     68  60  75 CALM      30.02R
NEW PHILLY     CLEAR     65  61  87 CALM      30.01R
$$



USA.gov is the U.S. government's official web portal to all federal, state and local government web resources and services.